[[{"header":{"parameterUnit":"m.s-1","parameterCategory":1,"la1":30.2991,"la2":30.254,"lo1":-89.0895,"lo2":-89.0444,"dy":0.0017,"dx":0.0017,"nx":28,"ny":28,"refTime":"2024-12-07T03:00:00:Z","depth":0,"parameterNumber":2,"parameterNumberName":"U-component_of_WINDS"},"data":[0,0,0,0,0,0,0,0,0,0,0,0,0,0,0,0,0,0,0,0,0,0,0,0,0,0,0,0,0,0,0,0,0,0,0,0,0,0,0,0,0,0,0,0,0,0,0,0,0,0,0,0,0,0,0,0,0,0,-2.6305,-2.6305,0,-2.6324,-2.6325,-2.6325,-2.6238,-2.6235,-2.6233,-2.6231,-2.6252,-2.6254,-2.6257,0,0,0,0,0,0,0,0,0,0,0,0,0,-2.6194,-2.6196,-2.6305,-2.6305,-2.6306,-2.6324,-2.6325,-2.6325,-2.6238,-2.6235,-2.6232,-2.6229,-2.6251,-2.6254,-2.6258,0,0,0,0,0,0,0,0,0,0,0,0,0,-2.6231,-2.6197,-2.6305,-2.6265,-2.6261,-2.6324,-2.6325,-2.6325,-2.6239,-2.6235,-2.6231,-2.6228,-2.6249,-2.6254,-2.6258,-2.6361,0,0,-2.6271,-2.6273,0,0,0,0,0,0,0,0,-2.6229,-2.6235,-2.627,-2.6268,-2.6264,-2.6275,-2.6293,-2.6337,-2.624,-2.6248,-2.623,-2.6226,-2.6263,-2.6266,-2.6278,-2.6362,-2.6363,-2.6272,-2.6275,-2.6276,-2.6278,0,0,0,0,0,0,0,-2.6226,-2.6233,-2.6313,-2.6271,-2.6267,-2.6246,-2.6247,-2.6301,-2.6276,-2.6247,-2.624,-2.6244,-2.626,-2.6274,-2.6277,-2.6363,-2.6272,-2.6276,-2.6278,-2.628,-2.6533,-2.6537,0,0,0,0,0,0,-2.6229,-2.6232,-2.6312,-2.6313,-2.6236,-2.6251,-2.6252,-2.6275,-2.6275,-2.6272,-2.6247,-2.624,-2.6268,-2.6272,-2.6278,-2.6399,-2.6276,-2.628,-2.6283,-2.6529,-2.6534,-2.6538,0,0,0,0,0,0,-2.6227,-2.6237,-2.6311,-2.6271,-2.6279,-2.6257,-2.6284,-2.6278,-2.6291,-2.6276,-2.6271,-2.6265,-2.6265,-2.6272,-2.6341,-2.6398,-2.6282,-2.6286,-2.6524,-2.653,-2.6536,-2.6641,0,0,0,0,0,0,-2.6224,-2.6237,-2.6276,-2.6272,-2.6281,-2.6375,-2.6287,-2.6281,-2.6299,-2.6289,-2.6292,-2.6288,-2.6263,-2.6335,-2.6345,-2.6402,-2.629,-2.6519,-2.6527,-2.6534,-2.6633,-2.665,-2.6665,0,0,0,0,0,-2.622,-2.6305,-2.6278,-2.6288,-2.633,-2.6378,-2.6383,-2.6351,-2.6304,-2.6343,-2.6333,-2.6288,-2.639,-2.6343,-2.6354,-2.6413,-2.6515,-2.6525,-2.6534,-2.6625,-2.6647,-2.6665,0,0,0,0,0,0,-2.6316,-2.6304,-2.6274,-2.636,-2.6371,-2.6363,-2.6412,-2.6375,-2.64,-2.639,-2.635,-2.6351,-2.6427,-2.6427,-2.6374,-2.6512,-2.6444,-2.6456,-2.651,-2.653,-2.6546,-2.6546,-2.6294,0,0,0,0,0,-2.6347,-2.6387,-2.6374,-2.6451,-2.6458,-2.6434,-2.6454,-2.6429,-2.6438,-2.6442,-2.6437,-2.6449,-2.6483,-2.6506,-2.6537,-2.6631,-2.6631,-2.6677,-2.6694,-2.6707,-2.6718,-2.6768,-2.6788,-2.6569,-2.6568,-2.6568,0,0,-2.6412,-2.641,-2.6438,-2.6471,-2.6476,-2.6518,-2.6439,-2.6487,-2.6518,-2.645,-2.6515,-2.6512,-2.6521,-2.6604,-2.664,-2.6605,-2.6778,-2.6719,-2.673,-2.6733,-2.678,-2.68,-2.6819,-2.6575,-2.6574,-2.6573,0,0,-2.6552,-2.6555,-2.6619,-2.6626,-2.6634,-2.6617,-2.6633,-2.6631,-2.6626,-2.669,-2.664,-2.6676,-2.6736,-2.6745,-2.6757,-2.6899,-2.686,-2.691,-2.6996,-2.7045,-2.7063,-2.7078,-2.7129,-2.7148,-2.6921,-2.6922,-2.6922,0,-2.6632,-2.6694,-2.6657,-2.6709,-2.6725,-2.6663,-2.6728,-2.6736,-2.6755,-2.6767,-2.6728,-2.6802,-2.6804,-2.6888,-2.6922,-2.6934,-2.6951,-2.6911,-2.7063,-2.7078,-2.7091,-2.714,-2.7159,-2.6928,-2.6927,-2.6926,-2.6926,0,-2.6792,-2.6835,-2.6886,-2.6905,-2.6926,-2.6985,-2.6956,-2.6982,-2.6955,-2.6942,-2.7008,-2.7008,-2.7038,-2.7056,-2.7029,-2.7136,-2.7114,-2.707,-2.7001,-2.7119,-2.7164,-2.7182,-2.6937,-2.6934,-2.6932,-2.6931,0,0,-2.6995,-2.6991,-2.7011,-2.7018,-2.7022,-2.7055,-2.711,-2.7138,-2.7162,-2.7176,-2.7221,-2.7273,-2.7232,-2.7246,-2.722,-2.7263,-2.7376,-2.7213,-2.7212,-2.7244,-2.7493,-2.7527,-2.7549,-2.7348,-2.7352,-2.7355,-2.7492,0,-2.7132,-2.7226,-2.7194,-2.729,-2.7329,-2.7271,-2.7319,-2.7327,-2.7316,-2.7348,-2.7336,-2.7374,-2.7316,-2.7324,-2.7364,-2.7354,-2.7425,-2.7343,-2.7391,-2.7393,-2.7392,-2.7572,-2.7608,-2.7738,-2.7509,-2.7512,-2.7514,0,-2.7306,-2.7327,-2.7426,-2.7423,-2.7438,-2.7482,-2.7505,-2.7536,-2.7544,-2.7533,-2.7548,-2.7513,-2.7566,-2.7497,-2.757,-2.7515,-2.7533,-2.753,-2.7535,-2.7539,-2.7462,-2.7582,-2.7779,-2.7799,-2.7541,-2.7539,-2.7537,0,-2.7445,-2.7497,-2.7563,-2.7572,-2.7569,-2.7601,-2.7602,-2.7605,-2.7624,-2.7644,-2.7656,-2.7682,-2.7697,-2.7718,-2.769,-2.7642,-2.7768,-2.7696,-2.7761,-2.7762,-2.7792,-2.7791,-2.7995,-2.7802,-2.7801,-2.7801,-2.7801,0,-2.7603,-2.7666,-2.7626,-2.7667,-2.7736,-2.7697,-2.7767,-2.7761,-2.7764,-2.7803,-2.7754,-2.7792,-2.7752,-2.7786,-2.7765,-2.7829,-2.7836,-2.7829,-2.7823,-2.7834,-2.7836,-2.7846,-2.7837,-2.7806,-2.7805,-2.7804,-2.7803,0,-2.777,-2.7746,-2.7814,-2.7805,-2.7805,-2.7856,-2.7849,-2.7886,-2.7871,-2.7921,-2.7931,-2.7908,-2.7945,-2.7919,-2.7956,-2.7942,-2.8027,-2.8007,-2.8025,-2.802,-2.8086,-2.8081,-2.8306,-2.8334,-2.8122,-2.8124,-2.8126,0,-2.7873,-2.7921,-2.7917,-2.7939,-2.7942,-2.7979,-2.7997,-2.7961,-2.7982,-2.7994,-2.803,-2.8063,-2.8087,-2.8149,-2.8136,-2.8165,-2.8146,-2.8223,-2.815,-2.816,-2.8148,-2.8146,-2.8151,-2.8238,-2.8241,-2.8243,-2.8245,0,-2.8059,-2.8044,-2.8072,-2.8097,-2.812,-2.8137,-2.8151,-2.8172,-2.8135,-2.8162,-2.8199,-2.8218,-2.8255,-2.8289,-2.8312,-2.8312,-2.8273,-2.8267,-2.8284,-2.8297,-2.8305,-2.8302,-2.8066,-2.8263,-2.8261,-2.826,-2.8259,-2.8258,-2.8198,-2.8237,-2.824,-2.8273,-2.8279,-2.8293,-2.8327,-2.8316,-2.8346,-2.8374,-2.835,-2.8395,-2.84,-2.8427,-2.8432,-2.8467,-2.8435,-2.8459,-2.8466,-2.8472,-2.8482,-2.8298,-2.8471,-2.847,-2.8469,-2.8469,-2.8469,0,-2.8382,-2.838,-2.8411,-2.8431,-2.8457,-2.8416,-2.8428,-2.8453,-2.8493,-2.8501,-2.8525,-2.8568,-2.86,-2.8588,-2.8617,-2.8646,-2.8629,-2.8655,-2.8653,-2.8654,-2.8508,-2.8491,-2.8669,-2.8669,-2.8669,-2.8669,-2.8669,-2.8669,-2.848,-2.8544,-2.853,-2.8596,-2.8594,-2.8637,-2.8647,-2.866,-2.8666,-2.8715,-2.8741,-2.8733,-2.8733,-2.8761,-2.8788,-2.8784,-2.8797,-2.883,-2.882,-2.8684,-2.8664,-2.8646,-2.863,-2.8833,-2.8833,-2.8963,-2.8964,-2.8965]},{"header":{"parameterUnit":"m.s-1","parameterCategory":1,"la1":30.2991,"la2":30.254,"lo1":-89.0895,"lo2":-89.0444,"dy":0.0017,"dx":0.0017,"nx":28,"ny":28,"refTime":"2024-12-07T03:00:00:Z","depth":0,"parameterNumber":3,"parameterNumberName":"V-component_of_WINDS"},"data":[0,0,0,0,0,0,0,0,0,0,0,0,0,0,0,0,0,0,0,0,0,0,0,0,0,0,0,0,0,0,0,0,0,0,0,0,0,0,0,0,0,0,0,0,0,0,0,0,0,0,0,0,0,0,0,0,0,0,0.3497,0.3496,0,0.3445,0.3445,0.3444,0.3431,0.3431,0.3431,0.3432,0.3377,0.3375,0.3373,0,0,0,0,0,0,0,0,0,0,0,0,0,0.3583,0.3582,0.3497,0.3496,0.3496,0.3445,0.3445,0.3444,0.3431,0.3431,0.3431,0.3432,0.3377,0.3375,0.3373,0,0,0,0,0,0,0,0,0,0,0,0,0,0.354,0.3581,0.3497,0.3483,0.3481,0.3445,0.3444,0.3444,0.343,0.3431,0.3431,0.3432,0.3378,0.3376,0.3373,0.3347,0,0,0.3365,0.3364,0,0,0,0,0,0,0,0,0.3543,0.3537,0.3486,0.3484,0.3482,0.3445,0.3455,0.3411,0.343,0.345,0.3432,0.3432,0.3399,0.3395,0.3384,0.3344,0.3342,0.3365,0.3363,0.3362,0.3361,0,0,0,0,0,0,0,0.3546,0.3539,0.3476,0.3485,0.3483,0.3479,0.3473,0.3447,0.3422,0.3448,0.3447,0.3441,0.3398,0.3386,0.3382,0.3341,0.3365,0.3362,0.3361,0.336,0.3279,0.3278,0,0,0,0,0,0,0.3551,0.3542,0.3478,0.3475,0.3514,0.3477,0.3471,0.3456,0.3422,0.3418,0.3441,0.3441,0.3391,0.3386,0.338,0.3348,0.3362,0.3359,0.3358,0.3279,0.3279,0.3278,0,0,0,0,0,0,0.3553,0.3546,0.348,0.3508,0.3499,0.3475,0.3459,0.3455,0.3443,0.3417,0.3412,0.3433,0.3391,0.3384,0.3356,0.3346,0.3358,0.3356,0.328,0.3279,0.3278,0.3283,0,0,0,0,0,0,0.3556,0.3546,0.3536,0.3508,0.3498,0.3456,0.3458,0.3454,0.3439,0.3438,0.3409,0.3404,0.3391,0.336,0.3353,0.3342,0.3354,0.3281,0.3279,0.3278,0.3283,0.3282,0.3281,0,0,0,0,0,0.3559,0.3539,0.3536,0.3528,0.3485,0.3456,0.345,0.3435,0.3438,0.3428,0.3411,0.3405,0.3348,0.3357,0.3349,0.3338,0.3281,0.328,0.3279,0.3284,0.3282,0.3281,0,0,0,0,0,0,0.3566,0.3535,0.3531,0.3501,0.3481,0.3454,0.344,0.3434,0.3412,0.3412,0.3394,0.3388,0.3361,0.3346,0.3356,0.3311,0.3315,0.3312,0.3321,0.332,0.3319,0.3322,0.3352,0,0,0,0,0,0.3564,0.3543,0.3517,0.3494,0.3484,0.3464,0.3451,0.3441,0.3419,0.3411,0.3392,0.337,0.3348,0.3333,0.3311,0.3282,0.3275,0.327,0.3269,0.3268,0.3266,0.325,0.3247,0.3274,0.3274,0.3274,0,0,0.356,0.354,0.3528,0.3495,0.3478,0.3457,0.3457,0.3434,0.3418,0.3407,0.3379,0.3365,0.334,0.3311,0.3297,0.3298,0.3257,0.3267,0.3266,0.3264,0.3248,0.3246,0.3243,0.3273,0.3273,0.3273,0,0,0.3541,0.3525,0.3503,0.3487,0.3462,0.3449,0.3445,0.3418,0.3408,0.338,0.3372,0.3353,0.3314,0.3297,0.3283,0.326,0.3254,0.3253,0.3247,0.3232,0.323,0.3228,0.3219,0.3217,0.3251,0.3251,0.3251,0,0.3539,0.3507,0.3493,0.3471,0.3457,0.3447,0.3426,0.341,0.3379,0.337,0.3372,0.3324,0.3306,0.3274,0.3268,0.3258,0.3251,0.3256,0.3231,0.3229,0.3227,0.3219,0.3216,0.3251,0.3251,0.3251,0.3251,0,0.3505,0.3483,0.3469,0.344,0.3425,0.3403,0.3386,0.3372,0.3364,0.3351,0.3323,0.3302,0.3276,0.3268,0.326,0.3234,0.3236,0.3235,0.3238,0.3225,0.3217,0.3214,0.3251,0.3251,0.3251,0.3251,0,0,0.3487,0.3453,0.3448,0.3435,0.3408,0.3391,0.3369,0.3345,0.3333,0.3312,0.3293,0.3262,0.3261,0.3246,0.3236,0.3223,0.3206,0.3223,0.3222,0.322,0.3177,0.3177,0.3174,0.3203,0.3202,0.3201,0.3179,0,0.3465,0.3426,0.3414,0.3382,0.3361,0.3353,0.3334,0.3316,0.3304,0.3284,0.3271,0.3249,0.3249,0.324,0.3227,0.3211,0.3197,0.3213,0.3184,0.3183,0.319,0.317,0.317,0.3149,0.3176,0.3175,0.3175,0,0.3433,0.3413,0.3379,0.3356,0.3347,0.333,0.3307,0.3289,0.3268,0.326,0.3244,0.3236,0.3213,0.3219,0.3187,0.3198,0.3186,0.3177,0.3175,0.3171,0.3177,0.3164,0.3142,0.3139,0.317,0.317,0.317,0,0.3423,0.3388,0.3363,0.3353,0.3325,0.3313,0.3301,0.3281,0.3267,0.3247,0.3238,0.3215,0.3203,0.3185,0.3171,0.3177,0.3141,0.3145,0.3133,0.3133,0.3125,0.3125,0.31,0.3119,0.3119,0.3119,0.3119,0,0.3399,0.3378,0.3358,0.3343,0.332,0.3307,0.3284,0.3272,0.3254,0.3236,0.3228,0.3211,0.3194,0.3175,0.3164,0.3139,0.3134,0.3126,0.3123,0.3126,0.3127,0.3117,0.3118,0.3118,0.3118,0.3118,0.3118,0,0.3383,0.3369,0.3342,0.3318,0.3312,0.3296,0.3276,0.3261,0.3249,0.3226,0.322,0.3202,0.3179,0.3164,0.3134,0.3127,0.31,0.3098,0.3108,0.3106,0.3095,0.3096,0.3061,0.3056,0.3079,0.3079,0.3079,0,0.3368,0.3352,0.3328,0.3315,0.3303,0.3284,0.327,0.3257,0.3243,0.3219,0.3207,0.3184,0.3165,0.3129,0.3113,0.3091,0.3087,0.3077,0.3084,0.3088,0.3086,0.3087,0.3086,0.3075,0.3075,0.3075,0.3075,0,0.3342,0.3337,0.3318,0.3297,0.3281,0.3263,0.3246,0.3236,0.322,0.3205,0.3183,0.3168,0.3139,0.3116,0.3093,0.308,0.3075,0.3073,0.3069,0.3071,0.3077,0.3074,0.3104,0.3073,0.3074,0.3074,0.3074,0.3074,0.3326,0.3312,0.3293,0.3272,0.3258,0.3242,0.3227,0.3214,0.3195,0.3171,0.3165,0.3141,0.3122,0.309,0.3077,0.3058,0.3059,0.3054,0.3052,0.305,0.305,0.3082,0.3054,0.3054,0.3054,0.3054,0.3054,0,0.33,0.3287,0.3269,0.3245,0.3229,0.3227,0.3208,0.3195,0.3174,0.3157,0.3139,0.3113,0.3092,0.3074,0.3052,0.3041,0.3037,0.3035,0.3035,0.3032,0.3051,0.3056,0.3038,0.3038,0.3038,0.3038,0.3038,0.3038,0.3284,0.326,0.3252,0.3222,0.321,0.3187,0.3176,0.3162,0.3148,0.312,0.3103,0.3092,0.3075,0.3052,0.3032,0.3027,0.3019,0.3017,0.3012,0.3029,0.3031,0.3033,0.3038,0.3016,0.3016,0.2995,0.2995,0.2995]}]]